TimeCDT,TemperatureF,Dew PointF,Humidity,Sea Level PressureIn,VisibilityMPH,Wind Direction,Wind SpeedMPH,Gust SpeedMPH,PrecipitationIn,Events,Conditions,WindDirDegrees,DateUTC
12:15 AM,43.5,27.3,53,29.98,10.0,WSW,9.2,-,N/A,,Clear,250,2013-04-28 05:15:00
12:35 AM,45.5,27.9,50,29.98,10.0,West,10.4,-,N/A,,Clear,260,2013-04-28 05:35:00
12:55 AM,45.5,28.2,51,29.97,10.0,West,9.2,-,N/A,,Clear,260,2013-04-28 05:55:00
1:15 AM,45.3,27.9,51,29.97,10.0,West,10.4,-,N/A,,Clear,260,2013-04-28 06:15:00
1:35 AM,46.9,27.5,47,29.96,10.0,West,9.2,-,N/A,,Clear,260,2013-04-28 06:35:00
1:55 AM,45.7,27.7,49,29.96,10.0,WSW,9.2,-,N/A,,Clear,250,2013-04-28 06:55:00
2:15 AM,46.4,27.5,48,29.95,10.0,West,10.4,-,N/A,,Clear,260,2013-04-28 07:15:00
2:35 AM,45.1,27.5,50,29.94,10.0,West,9.2,-,N/A,,Clear,270,2013-04-28 07:35:00
2:55 AM,47.5,27.0,45,29.94,10.0,West,10.4,-,N/A,,Clear,260,2013-04-28 07:55:00
3:15 AM,46.6,27.5,47,29.93,10.0,West,11.5,-,N/A,,Clear,260,2013-04-28 08:15:00
3:35 AM,49.3,26.2,41,29.93,10.0,West,15.0,18.4,N/A,,Clear,270,2013-04-28 08:35:00
3:55 AM,53.4,23.9,32,29.93,10.0,West,17.3,-,N/A,,Clear,270,2013-04-28 08:55:00
4:15 AM,53.1,23.7,32,29.93,10.0,West,19.6,-,N/A,,Clear,270,2013-04-28 09:15:00
4:35 AM,53.8,23.0,30,29.93,10.0,West,18.4,-,N/A,,Clear,260,2013-04-28 09:35:00
4:55 AM,53.6,22.8,30,29.94,10.0,West,17.3,-,N/A,,Clear,260,2013-04-28 09:55:00
5:35 AM,48.6,24.8,39,29.94,10.0,West,13.8,-,N/A,,Clear,260,2013-04-28 10:35:00
6:15 AM,47.5,25.3,42,29.93,10.0,West,12.7,-,N/A,,Clear,260,2013-04-28 11:15:00
6:35 AM,44.4,26.1,49,29.93,10.0,West,8.1,-,N/A,,Clear,260,2013-04-28 11:35:00
6:55 AM,47.8,25.9,42,29.93,10.0,West,13.8,-,N/A,,Clear,270,2013-04-28 11:55:00
7:15 AM,46.6,26.6,46,29.93,10.0,West,11.5,-,N/A,,Clear,270,2013-04-28 12:15:00
7:35 AM,51.8,26.6,38,29.93,10.0,West,16.1,-,N/A,,Clear,270,2013-04-28 12:35:00
8:15 AM,55.9,27.1,33,29.94,10.0,West,15.0,-,N/A,,Clear,260,2013-04-28 13:15:00
8:35 AM,58.5,26.6,30,29.93,10.0,West,18.4,-,N/A,,Clear,270,2013-04-28 13:35:00
8:55 AM,60.3,27.3,29,29.93,10.0,West,17.3,20.7,N/A,,Clear,270,2013-04-28 13:55:00
9:15 AM,62.1,27.5,27,29.94,10.0,West,17.3,23.0,N/A,,Clear,270,2013-04-28 14:15:00
9:35 AM,63.7,27.7,26,29.92,10.0,West,21.9,26.5,N/A,,Clear,270,2013-04-28 14:35:00
9:55 AM,65.7,28.4,25,29.93,10.0,West,23.0,27.6,N/A,,Clear,280,2013-04-28 14:55:00
10:15 AM,67.3,28.9,24,29.92,10.0,West,25.3,-,N/A,,Clear,280,2013-04-28 15:15:00
10:35 AM,70.3,28.0,21,29.91,10.0,West,24.2,29.9,N/A,,Clear,280,2013-04-28 15:35:00
10:55 AM,72.7,23.9,16,29.90,10.0,WNW,20.7,31.1,N/A,,Clear,300,2013-04-28 15:55:00
11:15 AM,72.7,23.7,16,29.91,10.0,NW,21.9,31.1,N/A,,Clear,310,2013-04-28 16:15:00
11:35 AM,73.6,23.9,16,29.91,10.0,NW,20.7,31.1,N/A,,Clear,310,2013-04-28 16:35:00
11:55 AM,73.9,23.5,15,29.91,10.0,NW,17.3,25.3,N/A,,Clear,320,2013-04-28 16:55:00
12:15 PM,74.3,21.9,14,29.91,10.0,NW,12.7,21.9,N/A,,Clear,310,2013-04-28 17:15:00
12:35 PM,74.7,22.5,14,29.91,10.0,NW,18.4,27.6,N/A,,Clear,310,2013-04-28 17:35:00
12:55 PM,75.0,22.1,14,29.90,10.0,NNW,15.0,26.5,N/A,,Clear,330,2013-04-28 17:55:00
1:15 PM,75.2,22.8,14,29.90,10.0,NW,13.8,27.6,N/A,,Clear,320,2013-04-28 18:15:00
1:35 PM,75.7,23.5,14,29.90,10.0,NW,17.3,26.5,N/A,,Clear,310,2013-04-28 18:35:00
1:55 PM,75.0,22.8,14,29.90,10.0,NW,9.2,24.2,N/A,,Clear,320,2013-04-28 18:55:00
2:15 PM,75.6,23.7,15,29.89,10.0,North,17.3,24.2,N/A,,Clear,350,2013-04-28 19:15:00
2:35 PM,76.1,23.7,14,29.89,10.0,NNW,17.3,24.2,N/A,,Clear,330,2013-04-28 19:35:00
2:55 PM,75.9,23.7,14,29.89,10.0,North,16.1,25.3,N/A,,Clear,350,2013-04-28 19:55:00
3:15 PM,74.5,23.4,15,29.89,10.0,North,12.7,18.4,N/A,,Clear,350,2013-04-28 20:15:00
3:35 PM,75.9,22.8,14,29.88,10.0,NW,9.2,18.4,N/A,,Clear,310,2013-04-28 20:35:00
3:55 PM,74.7,23.5,15,29.88,10.0,North,12.7,19.6,N/A,,Scattered Clouds,360,2013-04-28 20:55:00
4:15 PM,75.9,24.6,15,29.86,10.0,NNE,17.3,21.9,N/A,,Clear,20,2013-04-28 21:15:00
4:35 PM,75.6,24.4,15,29.86,10.0,North,10.4,19.6,N/A,,Scattered Clouds,10,2013-04-28 21:35:00
4:55 PM,73.6,25.0,16,29.85,10.0,North,10.4,17.3,N/A,,Mostly Cloudy,360,2013-04-28 21:55:00
5:15 PM,73.8,25.0,16,29.85,10.0,NNE,6.9,11.5,N/A,,Mostly Cloudy,20,2013-04-28 22:15:00
5:35 PM,74.8,25.0,16,29.87,10.0,NNW,15.0,18.4,N/A,,Mostly Cloudy,330,2013-04-28 22:35:00
5:55 PM,73.9,24.8,16,29.87,10.0,NNW,13.8,18.4,N/A,,Mostly Cloudy,340,2013-04-28 22:55:00
6:15 PM,72.7,25.5,17,29.86,10.0,NNE,9.2,-,N/A,,Scattered Clouds,20,2013-04-28 23:15:00
6:35 PM,70.3,28.8,21,29.88,10.0,NNE,12.7,-,N/A,,Mostly Cloudy,30,2013-04-28 23:35:00
6:55 PM,68.9,29.7,23,29.89,10.0,NNW,9.2,-,N/A,,Overcast,330,2013-04-28 23:55:00
7:15 PM,68.4,30.0,24,29.87,10.0,East,4.6,-,N/A,,Mostly Cloudy,100,2013-04-29 00:15:00
7:35 PM,67.3,30.6,25,29.87,10.0,East,6.9,-,N/A,,Mostly Cloudy,80,2013-04-29 00:35:00
7:55 PM,65.5,32.0,29,29.86,10.0,ESE,6.9,-,N/A,,Overcast,110,2013-04-29 00:55:00
8:15 PM,66.0,30.9,27,29.88,10.0,Calm,Calm,-,N/A,,Overcast,0,2013-04-29 01:15:00
8:35 PM,65.3,31.8,29,29.88,10.0,NW,5.8,-,N/A,,Mostly Cloudy,320,2013-04-29 01:35:00
8:55 PM,63.9,31.5,30,29.89,10.0,NW,3.5,-,N/A,,Mostly Cloudy,320,2013-04-29 01:55:00
9:15 PM,64.0,32.0,30,29.90,10.0,West,13.8,19.6,N/A,,Mostly Cloudy,270,2013-04-29 02:15:00
9:35 PM,64.2,32.0,30,29.90,10.0,West,10.4,19.6,N/A,,Mostly Cloudy,260,2013-04-29 02:35:00
9:55 PM,63.0,31.6,31,29.89,10.0,Calm,Calm,-,N/A,,Mostly Cloudy,0,2013-04-29 02:55:00
10:15 PM,61.7,32.0,33,29.89,10.0,Calm,Calm,-,N/A,,Overcast,0,2013-04-29 03:15:00
10:35 PM,60.8,32.9,35,29.91,10.0,ENE,6.9,10.4,N/A,,Overcast,70,2013-04-29 03:35:00
10:55 PM,60.3,32.0,34,29.92,10.0,East,13.8,17.3,N/A,,Overcast,80,2013-04-29 03:55:00
11:15 PM,59.2,31.6,35,29.90,10.0,SE,13.8,-,N/A,,Overcast,130,2013-04-29 04:15:00
11:35 PM,57.6,31.8,38,29.90,10.0,ESE,19.6,24.2,N/A,,Mostly Cloudy,120,2013-04-29 04:35:00
11:55 PM,57.2,32.0,38,29.90,10.0,ESE,13.8,19.6,N/A,,Mostly Cloudy,120,2013-04-29 04:55:00